Regional Weather Roundup
Issued by NWS Huntsville, AL

Current Version | Previous Version | Text Only | Print | Product List | Glossary On
Versions: 1 2 3 4 5 6 7 8 9 10 11 12 13 14 15 16 17 18 19 20 21 22 23 24 25 26 27 28 29 30 31 32 33 34 35 36 37 38 39 40 41 42 43 44 45 46 47 48 49 50
000
ASUS44 KHUN 062210
RWRHUN

WEATHER ROUNDUP FOR THE TENNESSEE VALLEY
NATIONAL WEATHER SERVICE HUNTSVILLE AL
500 PM CDT MON JUL 06 2015

ALZ001>004-062300-
NORTHWEST ALABAMA

CITY           SKY/WX    TMP DP  RH WIND       PRES   REMARKS
SHOALS AIRPORT SUNNY     88  69  53 W7        30.09F HX  92
$$

ALZ005>007-016-062300-
NORTH CENTRAL ALABAMA

CITY           SKY/WX    TMP DP  RH WIND       PRES   REMARKS
DECATUR AP     PTSUNNY   84  71  65 S7        30.10F
HUNTSVILLE AP  MOSUNNY   86  70  58 SW8       30.09F HX  90
HUN NWS/UAH      N/A     86  67  52 S7          N/A
MERIDIANVILLE  MOSUNNY   84  63  48 SW6       30.10F
REDSTONE ARSN  MOSUNNY   85  70  60 S8        30.09F HX  90
VINEMONT AP    FAIR      83  71  66 S8        30.14F
$$

ALZ008>010-062300-
NORTHEAST ALABAMA

CITY           SKY/WX    TMP DP  RH WIND       PRES   REMARKS
ALBERTVILLE    PTSUNNY   82  73  74 SW8       30.12F
FORT PAYNE     SUNNY     82  64  54 W5        30.11S
SCOTTSBORO AP  MOSUNNY   84  70  61 W5        30.11S
SCOTTSBORO HCN   N/A     84 N/A N/A MISG        N/A
$$

TNZ076-096-097-062300-
SOUTHEASTERN MIDDLE TENNESSEE

CITY           SKY/WX    TMP DP  RH WIND       PRES   REMARKS
TULLAHOMA      SUNNY     82  68  61 SW5       30.12F
WINCHESTER     SUNNY     84  70  61 W5        30.11F
$$

...SURROUNDING SITES...

CITY           SKY/WX    TMP DP  RH WIND       PRES   REMARKS
ATLANTA        PTSUNNY   81  70  69 SW9       30.12F THUNDER
ANNISTON       SUNNY     85  68  56 SW8       30.12F
BIRMINGHAM     MOSUNNY   84  69  60 SW8       30.14F
CHATTANOOGA    MOSUNNY   86  67  52 W8        30.09F
CORINTH        FAIR      84  72  65 S8        30.07S
DALTON         SUNNY     81  73  78 CALM      30.10F
GADSDEN        PTSUNNY   91  64  40 SW9       30.10F HX  93
GOLDEN TRNGL   MOSUNNY   86  73  66 SW9       30.09F HX  93
HALEYVILLE     FAIR      84  73  69 SW6       30.14F HX  90
JACKSON TN     SUNNY     86  73  65 SW7       30.05S HX  93
MEMPHIS        PTSUNNY   86  74  67 S14       30.04F HX  94
NASHVILLE      PTSUNNY   85  72  65 SW6       30.07F HX  91
OXFORD MS      FAIR      82  73  74 S5        30.09F
ROME           SUNNY     86  69  56 NW9       30.08F HX  90
SAVANNAH       PTSUNNY   86  32  14 SW8       30.07S
TUPELO         PTSUNNY   83  73  72 SW8       30.08F
TUSCALOOSA     SUNNY     87  71  58 W6        30.10F HX  93
$$

...GULF COAST WEATHER...

CITY           SKY/WX    TMP DP  RH WIND       PRES   REMARKS
GULFPORT       SUNNY     86  75  69 SE9       30.12F HX  95
PASCAGOULA     SUNNY     87  74  64 S5        30.12F HX  95
MOBILE         CLOUDY    87  71  58 SW5       30.13F HX  93
GULF SHORES    CLEAR     88  65  45 SW6       30.13S
PENSACOLA      MOSUNNY   86  69  56 SW10      30.12F HX  90
DESTIN         SUNNY     86  72  62 SW7       30.12F HX  92
PANAMA CITY    SUNNY     84  75  73 W7        30.12F HX  92
APPALACHICOLA  MOSUNNY   91  72  53 NW10      30.12F HX  98
$$




USA.gov is the U.S. government's official web portal to all federal, state and local government web resources and services.